Lapse_Rate
6.4 6.4 6.4 6.4 6.1 6.5 6.7 7.0 7.0 6.9 6.9 6.9 6.9 6.9 6.9 7.1 7.1 7.2 7.2 7.2 7.1 7.0 7.1 7.1 7.1 7.1 6.9 6.9 6.9 6.9 6.8 6.9 6.9 6.8 6.8 6.7 6.8 6.7 6.5 6.3 6.5 6.6 6.5 6.3 6.3 6.2 6.1 6.1 5.9
6.3 6.3 6.3 6.3 6.2 6.8 7.3 7.0 6.9 6.9 6.9 6.9 6.9 6.9 6.9 7.0 6.9 7.0 7.1 7.2 7.2 7.1 7.0 7.0 7.0 7.0 7.1 7.0 7.0 7.0 7.0 6.9 6.9 6.9 6.8 6.8 6.8 6.9 6.9 6.7 6.6 6.6 6.5 6.5 6.3 6.3 6.4 6.3 6.0
6.4 6.3 6.2 6.2 6.4 6.9 7.0 6.9 6.8 6.8 6.9 6.9 6.9 6.9 6.9 6.8 6.9 6.9 6.9 7.0 7.2 7.3 7.2 7.1 7.1 7.0 7.0 7.0 7.0 7.0 7.0 7.1 6.9 7.0 6.9 6.8 6.8 6.8 6.8 6.7 6.7 6.7 6.7 6.5 6.5 6.5 6.4 6.4 6.3
6.6 6.5 6.4 6.3 6.3 6.9 6.9 6.7 6.8 6.8 6.9 6.9 6.9 7.0 7.1 7.0 7.0 7.1 7.1 7.1 7.1 7.1 7.2 7.2 7.1 7.1 7.2 6.9 6.9 7.0 6.9 6.9 7.1 7.1 7.0 7.0 6.8 6.7 6.7 6.6 6.6 6.6 6.6 6.5 6.6 6.5 6.4 6.5 6.3
6.7 6.7 6.6 6.6 6.9 7.0 7.1 7.0 7.0 7.0 6.9 6.9 7.0 7.0 7.1 7.2 7.2 7.1 7.2 7.2 7.2 7.1 7.1 7.1 7.2 7.1 7.0 7.0 6.9 6.9 7.0 6.9 6.9 7.0 7.0 6.9 6.9 6.8 6.7 6.7 6.6 6.5 6.3 6.4 6.4 6.5 6.6 6.6 6.6
6.7 6.7 6.6 6.7 7.0 7.1 7.3 7.2 7.2 7.2 7.2 7.1 7.4 7.4 7.0 7.3 7.4 7.4 7.3 7.3 7.2 7.1 7.1 7.1 7.1 7.1 7.1 7.0 6.9 6.9 7.0 7.0 7.0 6.9 6.9 6.9 6.9 6.7 6.6 6.6 6.4 6.4 6.4 6.4 6.4 6.5 6.6 6.6 6.5
6.7 6.7 6.7 7.1 7.3 7.3 7.2 7.4 7.3 7.3 7.4 7.4 7.5 7.5 7.2 7.3 7.5 7.5 7.5 7.4 7.3 7.3 7.2 7.2 7.1 7.1 7.1 7.1 7.0 6.9 7.0 7.0 7.0 6.9 6.8 6.8 6.7 6.6 6.5 6.5 6.4 6.4 6.3 6.4 6.5 6.4 6.3 6.2 6.2
6.7 6.7 6.9 7.2 7.0 7.3 7.3 7.3 7.3 7.3 7.7 7.8 7.6 7.5 7.3 7.4 7.4 7.5 7.6 7.5 7.4 7.4 7.3 7.3 7.4 7.3 7.1 7.1 7.1 7.1 7.0 7.0 7.0 6.9 6.7 6.8 6.8 6.7 6.6 6.4 6.4 6.4 6.4 6.3 6.3 6.1 6.2 6.3 6.2
6.8 6.6 6.8 7.0 7.1 7.2 7.1 7.2 7.3 7.4 7.8 8.1 7.9 7.8 7.3 7.5 7.5 7.6 7.7 7.7 7.7 7.5 7.4 7.6 7.5 7.4 7.3 7.2 7.1 7.0 7.0 7.0 6.9 6.9 6.9 6.7 6.7 6.6 6.5 6.4 6.3 6.3 6.3 6.2 6.1 6.0 6.0 6.2 6.4
6.9 6.8 7.2 7.2 7.3 7.3 7.3 7.3 7.2 7.4 7.9 8.5 8.1 7.8 7.5 7.6 7.6 7.7 7.8 7.8 7.9 7.9 7.8 7.7 7.7 7.6 7.4 7.3 7.2 7.2 7.1 7.1 7.0 6.9 6.8 6.7 6.7 6.6 6.5 6.4 6.2 6.1 6.0 6.0 6.0 6.0 6.1 6.1 6.0
7.1 7.1 7.2 7.4 7.2 7.2 7.4 7.4 7.4 7.5 8.1 8.3 7.8 7.7 7.7 7.8 7.8 7.8 7.7 7.8 8.0 8.0 8.0 7.8 7.7 7.7 7.7 7.6 7.4 7.4 7.3 7.2 7.2 7.0 6.9 6.8 6.7 6.5 6.4 6.3 6.2 6.0 5.8 5.8 5.8 5.8 5.8 5.8 5.7
7.0 7.4 7.2 7.3 7.3 7.3 7.4 7.4 7.7 7.6 8.1 8.0 7.7 7.8 8.0 8.0 8.0 8.0 8.0 7.9 7.9 7.9 8.0 7.9 7.8 7.6 7.5 7.6 7.6 7.5 7.5 7.4 7.3 7.1 7.0 6.9 6.8 6.6 6.4 6.2 6.2 6.0 5.9 5.8 5.7 5.6 5.6 5.6 5.5
6.9 7.2 7.2 7.3 7.3 7.2 7.3 7.8 7.3 7.8 8.0 7.8 7.8 7.8 7.8 7.9 8.1 8.0 7.9 8.0 7.7 7.7 7.6 7.5 7.5 7.6 7.4 7.4 7.4 7.4 7.4 7.4 7.3 7.3 7.2 7.1 7.0 6.8 6.5 6.3 6.2 6.1 5.9 5.8 5.7 5.6 5.5 5.5 5.6
6.7 6.9 7.1 7.2 7.4 7.2 7.1 7.4 7.1 8.0 7.2 7.6 7.9 7.9 7.6 7.6 7.7 7.9 8.0 7.8 7.7 7.7 7.5 7.3 7.3 7.2 7.2 7.2 7.2 7.2 7.3 7.3 7.2 7.2 7.2 7.1 7.0 6.8 6.6 6.4 6.2 6.1 6.0 5.9 5.7 5.6 5.5 5.4 5.4
6.3 6.5 6.8 7.2 7.2 6.8 6.7 6.9 7.6 7.6 7.2 7.4 7.7 8.0 8.1 8.1 8.0 8.0 7.9 7.8 7.7 7.7 7.6 7.5 7.3 7.1 7.0 7.1 7.0 7.2 7.3 7.2 7.2 7.1 7.0 7.0 6.9 6.8 6.6 6.4 6.3 6.2 6.0 5.8 5.7 5.5 5.4 5.3 5.3
6.0 5.9 6.1 6.8 6.6 6.1 6.1 6.2 7.3 6.8 6.8 7.1 7.6 8.0 8.1 8.2 8.2 8.0 7.6 7.6 7.6 7.7 7.8 7.6 7.5 7.3 7.2 7.2 7.0 7.0 7.2 7.2 7.1 7.1 6.9 6.8 6.9 6.8 6.6 6.4 6.2 6.1 6.0 5.8 5.6 5.4 5.4 5.4 5.3
5.9 5.7 5.7 5.9 6.8 5.7 5.3 5.1 6.2 6.5 6.2 7.3 7.6 7.7 7.7 7.8 7.7 7.5 7.7 7.8 7.7 7.6 7.7 7.7 7.6 7.7 7.4 7.3 7.0 6.9 7.0 7.1 7.1 7.0 7.0 6.9 6.7 6.7 6.6 6.3 6.1 6.0 5.8 5.6 5.6 5.5 5.5 5.4 5.3
6.5 6.2 6.0 5.7 6.9 5.7 5.3 4.8 5.6 6.6 6.7 7.3 7.4 7.5 7.1 7.2 7.4 7.5 7.4 7.1 7.1 7.3 7.5 7.6 7.5 7.6 7.6 7.4 7.2 6.9 7.0 7.2 7.1 7.4 7.3 7.0 6.8 6.6 6.5 6.4 6.1 5.9 5.9 5.8 5.6 5.4 5.4 5.3 5.3
6.1 5.9 5.6 6.6 6.5 5.3 5.9 5.4 5.9 6.5 7.2 7.4 7.3 6.8 6.7 6.8 7.1 7.0 7.0 7.1 7.2 7.3 7.4 7.6 7.5 7.3 7.3 7.4 7.4 7.2 7.0 7.0 7.1 7.3 7.4 7.2 6.9 6.9 6.7 6.5 6.2 6.1 6.0 5.7 5.5 5.3 5.2 5.4 5.4
6.3 5.9 6.3 5.6 6.3 5.7 5.7 5.7 6.1 6.4 7.3 7.3 7.3 6.8 6.6 6.6 6.6 6.7 6.8 7.0 7.0 7.1 7.3 7.3 7.4 7.4 7.4 7.2 7.3 7.2 7.1 7.0 7.0 7.0 7.0 6.9 7.0 7.0 6.9 6.7 6.4 6.1 5.8 5.7 5.6 5.4 5.4 5.4 5.3
6.8 6.5 6.4 5.9 5.9 6.0 5.3 5.5 6.1 6.4 7.3 7.1 6.9 6.5 6.5 6.4 6.5 6.4 6.3 6.6 6.9 7.0 7.4 7.7 7.3 7.4 7.4 7.3 7.1 7.2 7.3 7.1 7.1 7.0 6.8 6.9 6.8 6.6 6.4 6.3 6.2 6.0 5.8 5.5 5.3 5.3 5.4 5.4 5.2
6.4 6.8 6.4 6.0 5.8 5.6 5.3 5.1 6.0 6.5 7.0 6.5 6.3 6.0 5.9 6.0 6.1 6.2 6.4 6.4 6.6 6.8 6.9 7.4 7.3 7.4 7.2 7.4 7.3 7.2 7.0 7.0 6.7 6.9 6.9 6.6 6.3 6.2 6.2 6.2 6.1 5.9 5.7 5.7 5.7 5.6 5.4 5.2 5.5
6.6 6.5 6.5 6.1 5.6 5.0 5.4 5.0 6.5 6.9 6.8 7.0 6.5 6.4 6.6 6.4 6.5 6.6 6.5 6.5 6.8 6.8 7.4 6.7 6.9 7.4 7.4 7.3 7.3 7.4 7.1 6.9 6.6 6.5 6.4 6.4 6.2 5.9 5.9 5.9 6.0 6.1 6.0 5.8 5.5 5.4 5.4 5.5 5.4
7.1 6.8 6.5 6.1 6.1 5.4 6.2 5.7 6.3 7.5 7.1 7.2 7.3 7.4 7.3 7.7 7.7 7.9 7.8 7.7 7.6 7.0 6.6 6.5 6.7 6.8 6.8 6.8 7.0 7.2 7.4 7.3 7.1 6.8 6.6 6.4 6.5 6.2 5.8 5.7 5.6 5.5 5.6 5.8 5.8 5.6 5.3 5.5 5.5
7.3 6.9 7.1 7.0 6.9 6.7 6.3 5.6 5.5 7.2 7.4 7.8 7.9 7.9 7.6 7.7 8.1 7.9 7.8 7.4 7.0 7.0 6.7 6.5 6.5 6.4 6.5 6.5 6.5 6.5 6.6 6.9 7.1 7.2 7.2 6.9 6.7 6.7 6.6 6.0 5.5 5.6 5.5 5.3 5.5 5.7 5.7 5.8 5.8
7.0 6.8 7.3 7.3 7.3 7.5 6.8 5.6 6.2 6.6 6.4 6.4 6.6 6.5 6.5 6.4 6.7 6.7 7.0 6.9 7.0 7.0 7.1 6.8 6.6 7.0 7.0 6.8 6.7 6.2 6.0 6.3 6.9 6.8 6.7 6.7 6.6 6.5 6.4 6.4 5.8 5.3 5.0 5.0 5.1 5.0 5.3 5.7 5.9
6.6 6.4 7.1 7.4 7.5 7.0 6.7 6.6 6.2 6.8 6.4 6.4 6.5 6.2 6.3 6.2 6.2 6.7 7.0 6.6 6.0 6.2 6.7 7.0 6.8 6.6 7.0 7.0 6.9 6.8 6.3 6.0 5.9 6.0 6.3 6.4 6.2 6.4 6.2 5.9 5.8 5.6 5.2 4.9 4.7 4.8 5.1 5.3 5.6
6.4 7.2 7.3 7.4 7.5 7.5 7.9 7.6 7.3 7.5 7.5 7.1 7.0 6.7 6.5 6.4 6.5 6.2 6.3 6.4 6.2 6.2 6.4 6.6 6.7 6.8 6.7 6.7 6.9 7.1 7.1 6.9 6.3 6.0 6.1 6.2 6.4 6.2 6.1 6.1 5.8 5.5 5.3 5.2 5.0 5.0 5.3 5.7 5.8
7.2 6.7 6.6 7.2 7.3 7.4 7.3 7.9 7.7 7.6 7.3 6.9 6.5 6.5 6.4 6.1 6.2 6.3 6.2 6.3 6.3 6.3 6.2 6.4 6.8 6.9 6.9 6.8 6.8 6.8 6.7 6.5 6.4 6.5 6.5 6.0 5.9 6.2 6.5 6.6 6.6 6.2 5.8 5.6 5.3 5.5 5.8 6.1 6.2
6.4 7.0 7.4 7.3 7.4 7.6 8.0 7.7 7.6 7.6 7.4 7.3 7.2 6.8 6.0 5.9 6.0 6.3 6.2 6.3 6.9 6.9 6.8 6.7 6.6 6.7 6.9 7.0 6.9 6.5 6.4 6.5 6.5 6.2 6.5 6.4 6.3 6.4 6.7 6.4 6.4 7.0 6.8 6.5 6.2 5.8 5.9 6.3 6.5
Wind_Speed
3 4 3 3 4 3 3 1 2 3 2 1 2 3 5 6 4 6 2 6 4 14 21 23 20 20 19 16 14 12 11 10 11 11 10 8 9 10 8 9 8 11 11 11 11 10 7 7 6
2 2 2 1 4 4 2 0 2 2 2 2 4 4 5 7 4 5 2 7 6 15 19 23 20 19 19 18 16 15 12 12 11 12 12 12 10 7 5 4 7 10 9 11 11 8 7 7 7
1 3 3 2 2 3 3 1 2 2 4 4 3 3 4 3 2 2 2 9 8 13 17 17 18 17 17 18 18 16 15 13 13 14 15 13 8 7 4 1 1 5 8 9 6 6 7 7 8
1 2 3 4 7 8 6 8 8 10 1 3 4 7 3 4 1 1 1 12 10 14 15 15 17 16 15 15 18 18 16 16 16 17 12 10 7 7 5 5 4 7 9 8 8 7 9 8 7
1 1 3 3 5 5 8 8 6 5 3 3 2 3 4 2 2 1 4 9 10 13 17 16 14 15 15 14 16 16 15 16 18 14 9 8 9 8 7 7 7 8 9 9 10 10 8 8 8
2 2 3 5 4 5 7 5 4 4 2 1 4 5 4 3 3 4 5 9 9 13 16 17 17 15 14 12 16 14 13 13 14 13 8 10 10 9 9 9 10 11 10 9 9 9 9 9 8
2 2 3 5 6 5 2 1 3 3 2 4 1 5 4 5 0 2 5 8 9 13 15 18 19 19 18 18 16 15 14 13 15 17 12 12 12 12 11 10 10 11 11 10 10 10 9 8 8
1 2 2 4 3 5 2 2 1 5 6 1 2 4 5 2 3 3 4 7 10 11 14 16 18 19 20 20 22 19 18 16 16 19 16 15 13 12 11 11 12 11 11 11 10 10 10 9 9
1 4 5 4 4 2 2 4 3 3 8 5 7 9 10 3 3 4 5 7 10 12 14 15 16 19 19 20 21 23 22 20 20 18 20 18 15 15 13 13 13 13 12 11 11 10 9 9 9
4 4 5 4 5 7 6 5 7 6 14 17 12 15 14 6 7 10 11 12 15 16 17 16 15 17 19 18 19 22 21 20 20 19 20 19 15 14 14 13 12 13 13 11 11 9 7 4 4
4 7 7 8 12 8 8 9 4 10 17 14 16 18 13 10 12 14 15 16 16 17 13 18 17 20 19 16 17 17 16 17 18 22 21 19 16 14 14 13 14 14 14 12 11 9 5 4 3
6 12 10 6 4 4 7 6 11 14 25 23 22 18 17 16 16 16 17 16 14 16 17 17 18 16 18 17 16 17 15 18 17 21 23 19 15 15 15 14 16 14 14 10 9 7 6 6 5
9 10 10 11 9 10 12 21 17 21 22 24 21 16 17 17 18 16 16 16 14 17 16 17 18 18 15 16 15 16 14 17 20 20 22 20 17 11 16 15 15 14 13 12 10 9 7 6 5
2 7 11 8 14 11 10 24 8 12 10 16 17 18 17 15 17 15 12 15 15 16 17 17 20 20 19 17 18 12 17 20 20 20 22 24 19 17 16 14 15 14 14 12 10 9 8 6 6
3 11 15 14 10 8 8 14 16 20 7 14 21 18 17 18 15 16 17 15 14 16 17 19 21 21 22 22 19 14 15 19 15 19 25 25 23 20 18 12 10 14 14 12 10 9 8 5 5
5 4 10 7 4 3 8 20 21 14 8 16 20 23 24 25 23 19 18 16 17 16 16 17 14 20 22 21 17 13 16 17 16 20 21 25 24 22 18 10 9 15 14 13 10 6 6 5 5
5 11 14 16 4 3 10 14 16 17 18 26 24 24 21 21 22 17 15 15 16 16 15 15 17 20 21 19 15 15 16 12 16 20 20 24 24 24 19 12 14 18 14 10 8 7 8 7 6
15 13 11 12 14 11 17 20 21 24 22 25 25 23 18 18 16 16 16 16 16 15 12 12 11 15 15 12 13 12 12 12 16 14 17 24 22 24 19 15 15 18 10 9 9 10 7 7 6
10 14 18 23 20 16 20 19 18 24 22 24 22 16 14 13 14 13 13 15 14 10 9 9 11 12 10 11 12 12 13 12 12 12 20 23 22 25 20 11 12 15 11 12 13 9 11 6 8
13 14 21 16 15 3 14 19 23 18 15 14 14 13 10 11 14 18 19 18 19 18 15 9 8 9 10 9 9 10 10 11 11 11 13 21 22 24 19 14 13 15 11 14 14 13 8 4 10
13 14 17 16 13 13 11 13 5 9 10 5 4 5 8 13 18 20 22 22 21 21 19 14 9 6 7 10 7 7 4 3 8 9 10 12 20 21 19 18 13 14 12 11 14 14 14 8 8
13 10 15 11 6 10 8 11 8 7 9 3 8 15 13 16 18 18 18 20 21 20 18 19 14 6 3 6 6 10 8 8 7 9 10 11 19 19 21 18 15 14 12 13 12 11 11 9 9
5 2 2 1 6 7 3 7 1 2 2 7 12 14 15 17 18 19 19 19 17 20 21 19 17 14 8 3 6 6 9 7 5 5 8 12 12 17 18 19 15 14 12 13 13 14 13 10 8
4 1 1 0 3 8 4 7 3 3 3 6 11 13 13 15 16 18 18 19 23 21 19 19 20 19 14 9 6 7 9 9 7 7 6 7 9 10 15 14 13 13 13 14 14 15 16 12 10
5 3 7 6 6 12 4 6 8 7 8 7 9 11 14 15 16 18 22 20 20 22 20 17 21 21 18 15 11 9 9 10 11 10 7 8 8 9 13 15 14 13 14 14 13 14 16 15 12
9 7 6 8 15 17 6 10 9 11 13 12 13 13 14 15 15 18 18 17 17 17 18 19 20 19 19 18 15 11 10 7 8 9 8 7 8 9 12 14 15 16 13 13 13 10 11 13 12
6 7 3 7 6 8 16 23 17 9 11 10 11 11 13 14 14 15 15 15 15 15 16 17 17 16 17 17 15 17 13 11 9 11 10 9 8 8 10 13 15 16 15 15 15 11 13 12 13
8 3 8 5 8 20 17 20 13 7 5 7 8 9 9 10 11 11 11 12 12 12 13 14 14 15 16 15 15 13 15 14 11 10 10 11 10 9 9 11 14 15 15 15 16 13 13 13 11
10 8 6 5 6 7 10 13 7 3 4 5 5 7 9 11 11 11 10 10 11 11 12 15 16 16 16 16 15 15 14 15 13 11 11 10 9 10 10 10 12 14 15 15 15 17 16 17 15
4 12 14 10 11 13 14 18 2 3 6 6 4 2 3 6 10 10 10 12 12 13 13 13 13 14 15 14 14 13 14 14 14 14 14 13 11 11 11 11 12 12 14 15 17 17 16 17 18
Wind_Direction
4 351 306 247 255 254 258 212 317 281 268 355 119 258 318 311 285 328 76 188 178 171 173 177 178 179 180 178 178 169 170 168 164 161 157 156 130 115 109 84 105 116 111 100 82 72 78 83 82
11 285 238 271 264 270 72 71 245 344 342 268 241 233 251 290 261 285 258 179 181 173 178 182 181 179 182 181 181 174 184 188 183 171 158 153 152 130 86 118 100 104 111 93 80 101 95 92 80
88 343 283 315 274 307 351 187 8 338 290 253 261 245 294 259 206 295 17 170 170 179 182 187 180 184 185 183 181 180 189 198 192 181 160 153 123 114 130 133 321 74 87 93 106 107 106 98 86
240 172 129 267 281 280 267 300 302 305 157 226 290 270 234 271 273 196 152 166 171 177 187 180 184 191 193 187 183 187 193 199 185 158 137 121 120 133 177 184 148 122 127 137 129 126 118 103 91
60 220 230 262 272 273 264 292 295 291 298 201 210 294 266 211 224 210 179 182 183 178 185 183 179 180 185 196 193 195 199 201 172 148 142 169 161 161 185 176 150 142 147 142 143 133 124 111 97
148 281 239 268 270 271 282 273 275 258 264 188 223 258 265 123 221 201 189 193 196 185 186 189 189 186 186 188 190 190 192 181 169 140 163 187 174 186 188 179 168 159 154 149 140 131 118 116 111
236 228 291 288 289 284 243 172 235 302 276 259 322 270 282 238 161 184 191 196 197 193 192 194 197 198 197 199 187 182 179 175 166 156 194 200 189 188 189 181 177 166 157 149 145 132 124 114 105
163 240 223 227 284 283 206 222 238 265 315 95 230 244 287 97 112 158 185 198 201 200 204 203 205 204 205 202 206 200 190 188 181 174 201 192 174 187 188 178 182 171 158 151 142 137 131 121 108
199 237 256 255 224 273 185 252 171 297 271 231 212 248 288 136 161 192 192 209 208 212 210 209 208 210 210 208 206 211 210 195 188 190 182 172 192 193 186 190 174 171 163 155 149 141 130 111 91
227 234 252 228 232 265 280 261 286 269 272 265 263 259 250 233 239 244 231 228 215 215 210 208 208 208 209 209 210 208 209 206 201 197 185 191 193 191 189 182 180 163 159 160 153 142 134 141 128
182 246 248 240 245 261 278 271 246 263 275 270 283 294 290 254 243 245 246 242 235 227 216 211 209 207 204 203 207 207 205 205 203 198 190 189 186 182 183 178 178 173 166 167 160 155 170 150 142
230 244 241 265 224 224 263 288 252 250 265 282 285 293 285 271 267 253 251 251 241 234 225 215 212 208 208 205 204 204 203 200 197 195 188 183 184 186 187 185 182 180 181 172 173 173 161 148 130
237 256 250 245 244 251 273 264 265 268 268 278 281 277 270 275 269 266 259 261 254 242 231 222 212 213 209 207 205 207 206 202 201 195 191 190 189 188 185 188 186 185 182 181 178 169 163 151 139
333 275 274 269 250 243 244 272 302 255 267 280 285 282 285 276 270 277 261 255 240 243 235 224 216 212 208 208 210 206 205 202 202 198 195 194 192 190 189 186 188 185 187 182 178 171 167 163 152
321 295 291 262 251 244 223 269 240 271 293 277 284 288 293 282 275 272 284 266 243 236 235 223 214 210 212 210 209 206 205 202 200 201 196 195 194 192 189 188 187 184 182 177 170 166 166 159 147
258 262 284 297 145 188 197 278 289 320 316 296 292 290 286 290 298 297 290 267 266 258 237 228 213 211 213 213 211 208 206 205 206 203 200 198 195 193 190 186 188 181 179 178 176 172 167 168 173
222 273 270 295 225 147 210 283 298 299 296 290 289 285 295 299 294 308 305 291 274 266 249 232 219 217 215 216 213 211 210 209 210 206 203 200 197 194 191 191 185 177 179 184 180 175 176 173 171
281 280 266 272 291 283 286 272 283 288 284 278 290 297 303 298 321 326 322 319 306 297 276 253 230 225 217 216 216 215 214 212 213 210 207 198 196 194 194 191 182 180 179 181 182 176 177 176 156
290 282 284 278 285 296 290 299 294 281 286 286 285 303 305 320 333 348 359 351 334 327 313 274 249 229 203 208 210 214 219 216 220 214 208 203 197 192 192 192 186 186 185 185 182 173 168 158 161
260 268 271 282 283 263 287 300 293 295 271 278 298 301 328 356 18 17 16 14 5 357 353 328 266 230 217 213 212 214 225 229 228 221 221 214 203 195 192 188 186 187 184 186 185 179 172 161 183
253 258 273 272 320 275 301 280 251 279 265 333 299 309 51 40 20 17 20 18 13 9 0 352 333 269 225 219 217 213 262 231 220 229 232 227 219 207 199 195 187 185 188 188 187 187 178 170 190
273 268 266 280 307 299 14 303 294 263 276 358 43 60 41 25 29 31 25 26 21 16 12 16 10 1 299 232 232 223 238 235 232 224 214 216 225 223 214 203 195 190 191 192 190 189 193 181 178
258 55 350 349 283 300 287 267 1 252 224 131 63 49 34 33 31 28 22 28 26 24 25 22 24 20 7 310 256 250 254 264 280 262 232 222 217 224 218 214 206 197 193 195 190 189 194 199 188
135 138 107 256 272 266 297 224 346 135 76 77 92 59 46 32 33 33 26 23 26 30 30 29 29 26 11 352 320 290 281 277 267 261 245 230 222 216 216 214 213 209 204 197 191 191 198 197 201
211 261 285 257 242 267 137 227 250 253 63 62 55 66 52 38 32 34 31 29 24 21 22 27 33 30 20 11 352 329 305 292 286 278 257 239 223 220 222 212 212 209 209 211 203 196 197 199 200
196 209 237 274 274 283 93 261 277 103 72 62 54 49 36 32 30 31 28 26 27 24 25 24 26 27 21 20 8 354 334 313 302 291 274 257 245 234 223 215 217 215 213 213 209 213 211 202 203
156 207 283 269 265 281 265 259 263 150 75 65 53 42 33 27 26 25 24 19 17 21 26 24 24 27 22 19 13 18 359 342 322 305 288 281 262 256 237 223 216 217 212 205 206 209 207 207 209
245 330 250 221 258 254 253 259 256 205 105 74 44 34 29 27 25 21 23 17 15 12 13 24 24 21 19 16 18 14 11 7 347 322 300 287 278 258 236 230 229 225 217 207 205 213 208 206 208
247 242 232 268 255 263 262 252 343 343 132 86 46 26 17 12 7 7 9 11 12 13 14 12 12 13 14 14 7 10 7 6 4 355 336 312 293 277 257 234 226 223 223 217 214 218 212 202 206
258 259 242 246 247 240 263 264 108 148 150 148 158 112 36 19 355 353 4 2 2 3 5 7 8 9 4 3 356 4 3 360 359 357 349 332 315 300 270 259 241 223 223 221 222 220 216 209 200